Tracking 29606 objects as of 18-Sep-2024
HD Live streaming from Space Station
objects crossing your sky now

SL-12 R/B(2)

Track SL-12 R/B(2) now!


NORAD ID: 14595
Int'l Code: 1983-127F
Perigee: 18,900.4 km
Apogee: 19,240.6 km
Inclination: 66.5 °
Period: 673.1 minutes
Semi major axis: 25441 km
RCS: 2.0988 m2 (large)
Launch date: December 29, 1983
Source: Commonwealth of Independent States (former USSR) (CIS)
Launch site: TYURATAM MISSILE AND SPACE COMPLEX (TTMTR)

Note: This is a ROCKET BODY
Your satellite tracking list
Your tracking list is empty




NASA's NSSDC Master Catalog

Two Line Element Set (TLE):
1 14595U 83127F   24260.15130076 -.00000057  00000-0  00000-0 0  9995
2 14595  66.5131 345.0568 0066860 190.7706 177.5143  2.13938033257728
Source of the keplerian elements: AFSPC